CZ-6A DEB

Satellite information

Favourite Embed

Satellite Type and Status

DEBRISIN ORBIT

Key statistics

Satellite CZ-6A DEB at a glance.

Uptime

909

Days in orbit

Revolutions

≈ 14.1

Per day

Orbit

SSO

Sun Synchronous Orbit

Inclination

98.8

Latest

Satellite identification and parameters

Extended collection of information and parameters for CZ-6A DEB.

Object identification

Identified? True

Debris? True

Object name: CZ-6A DEB

International designator: 2022-151XW

Object number (NORAD): 55524

Object ID (CCSDS): 55524

Country: PEOPLES REPUBLIC OF CHINA (PRC)

Current information (Y/N): Y

RCS size: SMALL

Orbital parameters

Period: 101.839 minutes

Inclination: 98.8432 deg

SMA: 7223.858 km

Apoapsis: 886.703 km

Periapsis: 804.743 km

RAAN: 130.9957 deg

Eccentricy: 0.0056728

Argument of periapsis: 47.8765 deg

Mean anomaly: 312.7209 deg

Mean motion: 14.13998541 rev/day

Mean motion (dot): 0.00003399 rev/day2

B* drag term: 0.0017838 1/REarth

Two-line elements (TLE)

Creation date: May 8, 2025, 3:01 a.m.

Reference frame: TEME

Reference center: EARTH

Epoch: May 7, 2025, 11:12 a.m. UTC

TLE line 0: 0 CZ-6A DEB

TLE line 1: 1 55524U 22151XW 25127.46711005 .00003399 00000-0 17838-2 0 9996

TLE line 2: 2 55524 98.8432 130.9957 0056728 47.8765 312.7209 14.13998541122460

Live tracking on map

Real-time ground track for satellite CZ-6A DEB.

In-orbit conjunctions

A list of the most updated potential collisions computed for object CZ-6A DEB.

Target Orbit TCA Probability of collision Miss distance Type
SCOUT G-1 DEB LEO 2025-01-06 01:43:49 0.0002321963 26.0 (m) DEBRIS
SL-3 DEB LEO 2024-10-03 05:04:31 0.0001524965 118.0 (m) DEBRIS

Associated space launch

Chinese satellite reported for atmospheric/ocean/environmental/spatial parameter research purposes, details TBD.

CZ-6A DEB was lifted into orbit during the mission ‘Long March 6A | Yunhai 3’, on board a Long March 6A space rocket.

The launch took place on Nov. 11, 2022, 10:52 p.m. from Launch Complex 9A.

For more information about the launch, click the button.

Launch to space Long March 6A | Yunhai 3
Long March 6A | Yunhai 3

Agency: N/A

Status: Launch Successful

Launch date: Nov. 11, 2022, 10:52 p.m. UTC

Rocket: Long March 6A

Launch pad: Launch Complex 9A

Location: Taiyuan Satellite Launch Center, People's Republic of China

...

Latest news about this satellite

There are no fresh news available about this satellite. Check back as we update our databases every day.


Newsletter sign-up

Weekly statistics, charts and insights to help you stay on top of the space industry.